TimeCST,TemperatureF,Dew PointF,Humidity,Sea Level PressureIn,VisibilityMPH,Wind Direction,Wind SpeedMPH,Gust SpeedMPH,PrecipitationIn,Events,Conditions,WindDirDegrees,DateUTC
1:53 AM,36.0,33.1,89,30.38,10.0,ENE,3.5,-,N/A,,Clear,70,2012-11-18 07:53:00
2:53 AM,37.0,30.9,79,30.37,10.0,NE,3.5,-,N/A,,Clear,40,2012-11-18 08:53:00
3:53 AM,39.9,28.9,65,30.39,10.0,North,3.5,-,N/A,,Clear,350,2012-11-18 09:53:00
4:53 AM,35.1,30.9,85,30.40,10.0,NE,3.5,-,N/A,,Clear,50,2012-11-18 10:53:00
5:53 AM,34.0,30.9,89,30.42,10.0,NE,3.5,-,N/A,,Clear,40,2012-11-18 11:53:00
6:53 AM,34.0,30.0,85,30.44,10.0,Calm,Calm,-,N/A,,Clear,0,2012-11-18 12:53:00
7:53 AM,39.9,33.1,77,30.44,10.0,Calm,Calm,-,N/A,,Mostly Cloudy,0,2012-11-18 13:53:00
8:53 AM,48.0,35.1,61,30.43,10.0,East,5.8,-,N/A,,Overcast,80,2012-11-18 14:53:00
9:53 AM,54.0,36.0,51,30.42,10.0,ENE,10.4,-,N/A,,Mostly Cloudy,60,2012-11-18 15:53:00
10:53 AM,57.0,39.0,51,30.39,10.0,ENE,9.2,-,N/A,,Clear,60,2012-11-18 16:53:00
11:53 AM,60.1,41.0,49,30.35,10.0,ENE,6.9,-,N/A,,Clear,70,2012-11-18 17:53:00
12:53 PM,63.0,43.0,48,30.32,10.0,Variable,3.5,-,N/A,,Partly Cloudy,0,2012-11-18 18:53:00
1:53 PM,64.9,44.1,47,30.31,10.0,ENE,4.6,-,N/A,,Partly Cloudy,60,2012-11-18 19:53:00
2:53 PM,66.0,43.0,43,30.30,10.0,NNE,4.6,-,N/A,,Clear,20,2012-11-18 20:53:00
3:53 PM,64.0,43.0,46,30.30,10.0,ENE,3.5,-,N/A,,Clear,70,2012-11-18 21:53:00
4:53 PM,57.9,44.1,60,30.31,10.0,Calm,Calm,-,N/A,,Clear,0,2012-11-18 22:53:00
5:53 PM,50.0,44.1,80,30.33,10.0,Calm,Calm,-,N/A,,Partly Cloudy,0,2012-11-18 23:53:00
6:53 PM,51.1,44.1,77,30.34,10.0,Calm,Calm,-,N/A,,Mostly Cloudy,0,2012-11-19 00:53:00
7:53 PM,48.0,44.1,86,30.34,10.0,ENE,3.5,-,N/A,,Clear,70,2012-11-19 01:53:00
8:53 PM,44.1,41.0,89,30.36,10.0,Calm,Calm,-,N/A,,Clear,0,2012-11-19 02:53:00
9:53 PM,44.1,41.0,89,30.35,9.0,Calm,Calm,-,N/A,,Clear,0,2012-11-19 03:53:00
10:53 PM,44.1,41.0,89,30.35,10.0,NE,3.5,-,N/A,,Mostly Cloudy,40,2012-11-19 04:53:00
11:53 PM,42.1,39.9,92,30.34,10.0,East,3.5,-,N/A,,Clear,80,2012-11-19 05:53:00